Location: Festilli
(46.4000°N, 11.6667°E)
Time: 22:09:40
(UTC+00:00)

Cosmos 1844 Rocket - Visible Passes

Search period start: 24 June 2021 00:00
Search period end: 04 July 2021 00:00
Orbit: 823 x 846 km, 71.0° (Epoch: 24 June)

Date Brightness Start Highest point End Pass type
(mag) Time Alt. Az. Time Alt. Az. Time Alt. Az.
24 Jun 3.9 20:03:57 10° NW 20:09:08 37° WSW 20:14:18 10° S visible
25 Jun 3.8 19:46:39 10° NW 19:51:57 41° WSW 19:57:12 10° S visible
01 Jul 5.7 19:51:15 10° W 19:51:30 10° W 19:51:45 10° W visible
